Flag for U.S.A. Weather past 2 weeks in Myrtle Beach, South Carolina, U.S.A.

Now
84 °F

Scattered showers. Partly sunny.


Feels Like: 92 °F
Forecast: 75 / 84 °F
Wind: 6 mph from Southeast

Location: Myrtle Beach Air Force Base

Current Time: Jul 22, 2014 at 3:59:37 PM

Latest Report: Jul 22, 2014 at 12:55 PM


Visibility: 10 mi

Pressure: 30.11 "Hg

Humidity: 74%

Dew point: 75 °F

Location of Myrtle BeachLocation

Historic Weather in Myrtle Beach — Graph

°F

Myrtle Beach temperature yesterday

Maximum temperature yesterday: 86 °F (at 11:45 AM)
Minimum temperature yesterday: 75 °F (at 5:15 AM)
Average temperature yesterday: 79 °F

Past Weeks' High & Low Weather Summary

 TemperatureHumidityPressure
High91 °F (Jul 8, 11:45 AM)94% (Jul 11, 2:55 AM)30.22 "Hg (Jul 11, 2:55 AM)
Low70 °F (Jul 17, 6:45 AM)46% (Jul 8, 11:45 AM)29.82 "Hg (Jul 15, 9:45 PM)
Average78 °F80%30.05 "Hg
* Reported Jul 7 12:45 PM — Jul 22 12:55 PM, Myrtle Beach, Weather by CustomWeather, © 2014

Note: Actual official high and low records may vary slightly from our data, if they occured in-between our weather recording intervals... More about our weather records

Advertising

Myrtle Beach weather history for previous 24 hours

 ConditionsComfort  
Time TempWeatherWind HumidityBarometerVisibility
12:55 PM
Jul 22
84 °FScattered showers. Partly sunny.6 mph74%30.11 "Hg10 mi
11:45 AM82 °FPartly sunny.9 mph74%30.12 "Hg10 mi
9:45 AM79 °FPartly sunny.7 mph84%30.12 "Hg8 mi
8:55 AM75 °FFog.7 mph89%30.11 "Hg3 mi
7:45 AM73 °FFog.6 mph94%30.11 "Hg1 mi
6:50 AM73 °FFog.6 mph94%30.09 "Hg1 mi
5:55 AM73 °FMild.8 mph89%30.08 "Hg2 mi
5:35 AM73 °FMild.7 mph94%30.08 "Hg3 mi
4:55 AM73 °FMild.7 mph94%30.07 "Hg10 mi
4:35 AM73 °FMild.6 mph94%30.06 "Hg8 mi
4:15 AM73 °FMild.7 mph94%30.06 "Hg2 mi
3:55 AM73 °FMild.6 mph94%30.06 "Hg1 mi
3:35 AM73 °FMild.7 mph94%30.06 "Hg2 mi
3:15 AM73 °FMild.6 mph94%30.07 "Hg10 mi
2:55 AM73 °FMild.7 mph94%30.07 "Hg10 mi
2:35 AM73 °FMild.6 mph94%30.07 "Hg10 mi
2:15 AM73 °FMild.6 mph94%30.08 "Hg10 mi
1:55 AM73 °FMild.5 mph94%30.09 "Hg10 mi
1:35 AM73 °FMild.6 mph94%30.09 "Hg10 mi
1:15 AM75 °FMild.7 mph89%30.10 "Hg10 mi
12:55 AM75 °FMild.6 mph89%30.10 "Hg10 mi
12:35 AM75 °FMild.7 mph94%30.11 "Hg10 mi
12:15 AM75 °FMild.8 mph94%30.11 "Hg10 mi
11:55 PM
Jul 21
75 °FMild.5 mph94%30.11 "Hg10 mi
11:35 PM79 °FWarm.9 mph84%30.11 "Hg10 mi
10:55 PM79 °FWarm.9 mph84%30.11 "Hg10 mi
9:45 PM79 °FPartly cloudy.8 mph84%30.10 "Hg7 mi
8:45 PM77 °FBroken clouds.6 mph89%30.08 "Hg7 mi
7:50 PM75 °FBroken clouds.8 mph89%30.09 "Hg8 mi
6:45 PM75 °FPartly sunny.9 mph89%30.09 "Hg7 mi
5:45 PM75 °FPartly sunny.12 mph89%30.11 "Hg8 mi
4:45 PM75 °FPartly sunny.9 mph94%30.10 "Hg7 mi
3:45 PM79 °FBroken clouds.6 mph84%30.10 "Hg7 mi
Weather by CustomWeather, © 2014

See weather overviewHow to use our weather pages